Latest Weather Observations for Noarlunga

IDS60801

Issued at 10:31 pm CST Thursday 3 September 2015 (issued every 30 minutes, with the page automatically refreshed every 10 minutes)

About weather observations | Map of weather stations | Latest weather observations for SA | Other Formats
Station Details ID: 023885 Name: NOARLUNGA Lat: -35.16 Lon: 138.51 Height: 55.0 m
Data from the previous 72 hours. | See also: Recent months at Noarlunga
Date/Time
CST
Temp
°C
App
Temp
°C
Dew
Point
Rel
Hum
%
Delta-T
°C
Wind Press
QNH
hPa
Press
MSL
hPa
Rain
since 9 am
mm
Dir
 
Spd
km/h
Gust
km/h
Spd
kts
Gust
kts
03/10:30pm 9.2 7.1 6.5 83 1.3 SSE 7 11 4 6 - - 1.0
03/10:00pm 10.1 7.7 6.8 80 1.6 S 9 11 5 6 - - 1.0
03/09:30pm 10.9 9.4 7.0 77 1.9 S 4 6 2 3 - - 1.0
03/09:00pm 10.8 8.3 6.7 76 1.9 SSE 9 11 5 6 - - 1.0
03/08:30pm 11.0 8.7 7.3 78 1.8 S 9 17 5 9 - - 1.0
03/08:00pm 11.3 9.5 7.8 79 1.7 SSW 7 9 4 5 - - 1.0
03/07:30pm 11.4 8.4 7.9 79 1.7 S 13 19 7 10 - - 1.0
03/07:00pm 11.2 8.7 8.1 81 1.5 SSE 11 17 6 9 - - 1.0
03/06:30pm 11.2 9.5 8.4 83 1.4 SSE 7 9 4 5 - - 1.0
03/06:00pm 11.7 10.1 8.6 81 1.5 S 7 13 4 7 - - 1.0
03/05:30pm 12.0 10.0 8.5 79 1.7 S 9 15 5 8 - - 1.0
03/05:00pm 12.3 9.6 8.8 79 1.8 S 13 20 7 11 - - 1.0
03/04:30pm 12.4 9.4 9.4 82 1.5 S 15 24 8 13 - - 1.0
03/04:00pm 12.0 8.4 9.7 86 1.2 SSE 19 28 10 15 - - 1.0
03/03:30pm 12.4 10.0 10.0 85 1.2 S 13 20 7 11 - - 0.6
03/03:00pm 14.0 10.7 9.4 74 2.4 S 17 24 9 13 - - 0.2
03/02:30pm 14.1 10.4 9.5 74 2.4 S 19 30 10 16 - - 0.2
03/02:00pm 14.0 10.1 9.4 74 2.4 S 20 30 11 16 - - 0.2
03/01:30pm 14.4 11.1 9.6 73 2.5 SSW 17 30 9 16 - - 0.2
03/01:00pm 13.5 10.6 10.9 84 1.4 SSW 17 32 9 17 - - 0.2
03/12:30pm 14.0 11.0 10.6 80 1.8 S 17 28 9 15 - - 0.2
03/12:00pm 13.6 10.9 10.4 81 1.7 SSW 15 24 8 13 - - 0.2
03/11:30am 14.5 11.2 9.5 72 2.6 S 17 28 9 15 - - 0.2
03/11:00am 13.6 9.7 9.3 75 2.2 SSW 20 33 11 18 - - 0.2
03/10:30am 13.7 10.1 9.7 77 2.1 SSW 19 30 10 16 - - 0.2
03/10:00am 13.7 11.7 10.1 79 1.9 SSW 11 17 6 9 - - 0.0
03/09:30am 12.8 10.8 10.0 83 1.4 SSW 11 19 6 10 - - 0.0
03/09:00am 12.6 10.9 9.8 83 1.4 S 9 13 5 7 - - 11.4
03/08:30am 12.3 9.7 9.5 83 1.4 SSW 13 24 7 13 - - 11.4
03/08:00am 12.4 9.4 9.1 80 1.7 S 15 24 8 13 - - 11.4
03/07:30am 12.3 9.2 9.0 80 1.7 S 15 26 8 14 - - 11.4
03/07:00am 11.9 10.5 8.9 82 1.5 S 6 9 3 5 - - 11.4
03/06:30am 11.4 9.9 9.3 87 1.1 SSW 7 13 4 7 - - 11.4
03/06:00am 11.4 10.0 9.5 88 1.0 SSW 7 13 4 7 - - 11.4
03/05:30am 11.5 9.7 9.4 87 1.1 SSW 9 15 5 8 - - 11.4
03/05:00am 11.6 9.8 9.5 87 1.1 SW 9 19 5 10 - - 11.4
03/04:30am 11.4 10.1 9.1 86 1.2 SW 6 9 3 5 - - 11.2
03/04:00am 11.5 9.6 9.1 85 1.2 SW 9 17 5 9 - - 11.2
03/03:30am 10.9 9.4 8.3 84 1.3 SW 6 7 3 4 - - 11.2
03/03:00am 10.6 9.0 8.0 84 1.3 S 6 9 3 5 - - 11.2
03/02:30am 10.4 8.8 7.8 84 1.3 SSW 6 9 3 5 - - 11.2
03/02:00am 10.3 8.5 7.9 85 1.2 SSE 7 9 4 5 - - 11.2
03/01:30am 10.9 9.4 8.3 84 1.3 S 6 9 3 5 - - 11.2
03/01:00am 10.7 8.6 8.1 84 1.3 SSW 9 17 5 9 - - 11.2
03/12:30am 11.0 8.1 8.1 82 1.4 SSW 13 26 7 14 - - 11.2
03/12:00am 9.9 8.1 7.2 83 1.3 SSW 6 13 3 7 - - 11.2
 
Date/Time
CST
Temp
°C
App
Temp
°C
Dew
Point
Rel
Hum
%
Delta-T
°C
Wind Press
QNH
hPa
Press
MSL
hPa
Rain
since 9 am
mm
Dir
 
Spd
km/h
Gust
km/h
Spd
kts
Gust
kts
02/11:30pm 10.6 6.7 7.3 80 1.6 SSE 17 24 9 13 - - 11.2
02/11:00pm 10.2 7.6 7.6 84 1.2 SSE 11 24 6 13 - - 11.2
02/10:30pm 10.2 8.3 7.6 84 1.2 S 7 13 4 7 - - 11.2
02/10:00pm 10.4 8.7 7.6 83 1.3 SSW 6 13 3 7 - - 11.2
02/09:30pm 10.6 7.2 7.7 82 1.4 S 15 22 8 12 - - 11.2
02/09:00pm 10.2 6.8 7.8 85 1.2 S 15 19 8 10 - - 11.2
02/08:30pm 10.1 6.4 7.9 86 1.1 S 17 24 9 13 - - 11.2
02/08:00pm 10.2 7.3 8.0 86 1.1 S 13 19 7 10 - - 11.2
02/07:30pm 10.2 6.9 8.1 87 1.0 SSE 15 24 8 13 - - 11.2
02/07:00pm 10.3 6.7 8.2 87 1.0 S 17 26 9 14 - - 11.0
02/06:30pm 10.3 6.3 8.4 88 0.9 SSE 19 30 10 16 - - 10.6
02/06:00pm 10.1 5.5 8.2 88 0.9 SSE 22 32 12 17 - - 10.2
02/05:30pm 10.6 6.7 8.7 88 0.9 SE 19 26 10 14 - - 9.8
02/05:00pm 10.6 7.4 8.4 86 1.1 SE 15 24 8 13 - - 9.2
02/04:30pm 11.2 9.3 8.9 86 1.1 ESE 9 15 5 8 - - 8.8
02/04:00pm 11.4 9.5 9.0 85 1.2 NE 9 17 5 9 - - 8.2
02/03:30pm 11.2 9.3 9.1 87 1.0 NNE 9 17 5 9 - - 8.2
02/03:00pm 10.7 7.9 8.6 87 1.0 NE 13 20 7 11 - - 6.6
02/02:30pm 10.9 8.2 8.8 87 1.0 NNE 13 20 7 11 - - 4.4
02/02:00pm 10.8 6.6 8.4 85 1.2 N 20 32 11 17 - - 3.0
02/01:30pm 11.1 6.6 8.5 84 1.3 N 22 37 12 20 - - 2.0
02/01:00pm 11.6 7.1 8.6 82 1.5 N 22 35 12 19 - - 1.0
02/12:30pm 11.3 5.2 8.2 81 1.5 N 30 46 16 25 - - 0.8
02/12:00pm 12.5 6.8 8.2 75 2.1 N 28 39 15 21 - - 0.8
02/11:38am 12.0 8.1 8.8 81 1.6 N 19 46 10 25 - - 0.8
02/11:30am 11.4 8.6 8.6 83 1.4 NNW 13 19 7 10 - - 0.8
02/11:00am 12.9 7.7 9.0 77 2.0 N 26 39 14 21 - - 0.0
02/10:30am 13.3 7.2 8.4 72 2.4 N 30 43 16 23 - - 0.0
02/10:00am 12.6 5.9 8.3 75 2.1 N 33 50 18 27 - - 0.0
02/09:30am 12.4 6.6 8.1 75 2.1 N 28 43 15 23 - - 0.0
02/09:00am 12.1 7.0 7.8 75 2.1 N 24 39 13 21 - - 7.4
02/08:30am 11.6 6.5 7.7 77 1.9 N 24 39 13 21 - - 7.4
02/08:00am 11.4 5.5 7.7 78 1.8 N 28 39 15 21 - - 7.4
02/07:30am 11.1 5.6 7.4 78 1.8 N 26 43 14 23 - - 7.4
02/07:00am 11.0 5.4 7.3 78 1.8 N 26 39 14 21 - - 7.4
02/06:30am 10.9 5.7 7.4 79 1.7 N 24 35 13 19 - - 7.4
02/06:00am 10.9 5.0 7.4 79 1.7 N 28 37 15 20 - - 7.4
02/05:30am 11.0 5.5 7.7 80 1.6 N 26 43 14 23 - - 7.4
02/05:00am 11.0 5.5 7.7 80 1.6 N 26 35 14 19 - - 7.4
02/04:30am 11.0 6.0 7.9 81 1.5 N 24 35 13 19 - - 7.4
02/04:00am 10.9 6.3 8.0 82 1.4 NNE 22 35 12 19 - - 7.4
02/03:30am 10.7 6.1 8.1 84 1.3 NNE 22 35 12 19 - - 7.4
02/03:00am 10.9 6.3 8.3 84 1.3 N 22 35 12 19 - - 6.8
02/02:30am 11.2 5.8 8.1 81 1.5 N 26 37 14 20 - - 6.6
02/02:00am 11.1 5.3 8.1 82 1.5 NNE 28 44 15 24 - - 6.6
02/01:30am 10.7 6.1 8.3 85 1.2 NNE 22 32 12 17 - - 6.6
02/01:00am 10.8 5.9 8.6 86 1.1 NNE 24 35 13 19 - - 6.0
02/12:30am 10.9 6.5 8.8 87 1.0 NNE 22 35 12 19 - - 5.4
02/12:00am 11.3 6.5 8.7 84 1.3 N 24 44 13 24 - - 3.8
 
Date/Time
CST
Temp
°C
App
Temp
°C
Dew
Point
Rel
Hum
%
Delta-T
°C
Wind Press
QNH
hPa
Press
MSL
hPa
Rain
since 9 am
mm
Dir
 
Spd
km/h
Gust
km/h
Spd
kts
Gust
kts
01/11:30pm 12.1 7.6 8.4 78 1.8 N 22 37 12 20 - - 1.8
01/11:00pm 13.2 7.8 7.9 70 2.6 N 26 43 14 23 - - 0.4
01/10:38pm 16.2 8.9 4.6 46 5.5 N 32 59 17 32 - - 0.0
01/10:30pm 16.2 10.1 4.6 46 5.5 NNE 26 43 14 23 - - 0.0
01/10:00pm 16.6 10.9 2.6 39 6.4 NNE 22 35 12 19 - - 0.0
01/09:30pm 16.6 11.2 2.2 38 6.5 NNE 20 30 11 16 - - 0.0
01/09:00pm 16.7 11.4 1.6 36 6.7 NNE 19 28 10 15 - - 0.0
01/08:30pm 16.6 12.8 1.9 37 6.6 NNE 11 22 6 12 - - 0.0
01/08:00pm 15.9 13.3 3.4 43 5.7 NE 6 13 3 7 - - 0.0
01/07:30pm 16.4 13.9 3.5 42 6.0 NE 6 7 3 4 - - 0.0
01/07:00pm 16.6 14.0 4.3 44 5.8 NE 7 15 4 8 - - 0.0
01/06:30pm 16.9 13.8 3.6 41 6.2 NE 9 15 5 8 - - 0.0
01/06:00pm 16.8 13.7 3.8 42 6.1 NE 9 13 5 7 - - 0.0
01/05:30pm 16.8 13.3 3.5 41 6.2 NNE 11 17 6 9 - - 0.0
01/05:00pm 17.0 12.8 4.0 42 6.1 N 15 24 8 13 - - 0.0
01/04:30pm 17.0 12.4 3.7 41 6.2 N 17 30 9 16 - - 0.0
01/04:00pm 17.8 11.7 2.5 36 7.0 N 24 35 13 19 - - 0.0
01/03:30pm 17.2 14.0 4.9 44 5.9 N 11 17 6 9 - - 0.0
01/03:00pm 17.7 12.4 2.8 37 6.8 N 20 30 11 16 - - 0.0
01/02:30pm 16.6 10.0 4.0 43 5.9 N 28 44 15 24 - - 0.0
01/02:00pm 17.9 11.9 3.4 38 6.8 N 24 41 13 22 - - 0.0
01/01:30pm 19.4 13.7 2.7 33 7.8 N 22 33 12 18 - - 0.0
01/01:00pm 19.5 14.2 3.2 34 7.7 N 20 33 11 18 - - 0.0
01/12:30pm 21.5 16.2 3.2 30 8.7 N 20 32 11 17 - - 0.0
01/12:00pm 19.1 12.4 1.6 31 7.9 N 26 37 14 20 - - 0.0
01/11:30am 19.8 14.1 2.6 32 8.0 NNE 22 32 12 17 - - 0.0
01/11:00am 18.6 12.4 2.4 34 7.4 N 24 43 13 23 - - 0.0
01/10:30am 18.0 12.5 1.9 34 7.3 NNE 20 32 11 17 - - 0.0
01/10:00am 18.1 12.8 2.0 34 7.3 N 19 39 10 21 - - 0.0
01/09:30am 17.1 11.3 2.3 37 6.7 NNE 22 28 12 15 - - 0.0
01/09:00am 17.5 13.6 3.4 39 6.6 NNE 13 20 7 11 - - 0.2
01/08:30am 15.6 13.3 5.8 52 4.7 NE 7 13 4 7 - - 0.2
01/08:00am 14.4 11.6 5.2 54 4.3 ENE 9 15 5 8 - - 0.2
01/07:30am 13.3 9.9 5.7 60 3.6 NE 13 19 7 10 - - 0.2
01/07:00am 13.1 10.4 5.5 60 3.6 NE 9 15 5 8 - - 0.2
01/06:30am 13.1 10.1 5.8 61 3.4 NNE 11 15 6 8 - - 0.2
01/06:00am 14.9 10.5 2.8 44 5.4 N 15 22 8 12 - - 0.0
01/05:30am 15.1 11.0 2.3 42 5.7 NNE 13 20 7 11 - - 0.0
01/05:00am 15.1 10.2 2.3 42 5.7 NNE 17 28 9 15 - - 0.0
01/04:30am 15.2 10.3 2.1 41 5.8 NNE 17 24 9 13 - - 0.0
01/04:00am 15.4 10.5 2.2 41 5.9 NNE 17 24 9 13 - - 0.0
01/03:30am 15.2 10.4 2.4 42 5.7 NNE 17 22 9 12 - - 0.0
01/03:00am 14.7 10.3 2.9 45 5.3 NNE 15 22 8 12 - - 0.0
01/02:30am 13.6 9.2 2.5 47 4.9 NE 15 22 8 12 - - 0.0
01/02:00am 13.4 9.7 2.6 48 4.8 NE 11 17 6 9 - - 0.0
01/01:30am 13.2 9.9 2.7 49 4.6 NE 9 11 5 6 - - 0.0
01/01:00am 13.6 9.6 2.8 48 4.8 ENE 13 19 7 10 - - 0.0
01/12:30am 13.8 10.2 3.0 48 4.8 E 11 15 6 8 - - 0.0
01/12:00am 13.7 9.7 2.6 47 4.9 ENE 13 17 7 9 - - 0.0
 
Date/Time
CST
Temp
°C
App
Temp
°C
Dew
Point
Rel
Hum
%
Delta-T
°C
Wind Press
QNH
hPa
Press
MSL
hPa
Rain
since 9 am
mm
Dir
 
Spd
km/h
Gust
km/h
Spd
kts
Gust
kts
31/11:30pm 13.7 9.7 2.9 48 4.8 E 13 17 7 9 - - 0.0
31/11:00pm 13.4 9.0 2.9 49 4.7 ENE 15 22 8 12 - - 0.0

Other Formats:

Comma delimited format used in spreadsheet applications
http://www.bom.gov.au/fwo/IDS60801/IDS60801.94808.axf

JavaScript Object Notation format (JSON) in row-major order
http://www.bom.gov.au/fwo/IDS60801/IDS60801.94808.json